Volver al catálogo

KUIPER-00231

ActivoComunicacionesLEO
NORAD 68580·PAYLOAD·🇺🇸 United States

Lanzado Apr 4, 2026 desde Cape Canaveral Space Force Station

Loading…

Próximos Pases (próximas 24 horas)

TLE

ActualizadoSource: CelesTrak SupGP

Época: Sep 14, 2026, 23:01 UTC

1 68580C 26072H   26257.95914352  .00004621  00000+0  60491-3 0  2576
2 68580  51.8963 131.2557 0002132 102.2709 211.7751 14.79927254    19

Sigue KUIPER-00231 en tiempo real con AllMySat

Download on the App Store